Year,Month,Day,Hour,Minute,Value (Times are PST for windspeed in km/hr)
2013,02,28,00,00,16.20
2013,02,28,00,01,8.70
2013,02,28,00,02,8.30
2013,02,28,00,03,11.10
2013,02,28,00,04,12.20
2013,02,28,00,05,12.00
2013,02,28,00,06,13.00
2013,02,28,00,07,15.10
2013,02,28,00,08,14.00
2013,02,28,00,09,10.50
2013,02,28,00,10,11.00
2013,02,28,00,11,11.20
2013,02,28,00,12,10.60
2013,02,28,00,13,15.60
2013,02,28,00,14,17.20
2013,02,28,00,15,12.70
2013,02,28,00,16,10.00
2013,02,28,00,17,13.10
2013,02,28,00,18,11.00
2013,02,28,00,19,13.40
2013,02,28,00,20,10.80
2013,02,28,00,21,14.60
2013,02,28,00,22,10.40
2013,02,28,00,23,11.30
2013,02,28,00,24,13.20
2013,02,28,00,25,11.30
2013,02,28,00,26,11.10
2013,02,28,00,27,10.30
2013,02,28,00,28,10.00
2013,02,28,00,29,11.00
2013,02,28,00,30,8.30
2013,02,28,00,31,10.60
2013,02,28,00,32,10.80
2013,02,28,00,33,12.10
2013,02,28,00,34,13.30
2013,02,28,00,35,12.10
2013,02,28,00,36,11.80
2013,02,28,00,37,13.30
2013,02,28,00,38,11.50
2013,02,28,00,39,7.50
2013,02,28,00,40,11.30
2013,02,28,00,41,10.30
2013,02,28,00,42,10.80
2013,02,28,00,43,11.30
2013,02,28,00,44,10.30
2013,02,28,00,45,9.50
2013,02,28,00,46,12.50
2013,02,28,00,47,9.30
2013,02,28,00,48,9.10
2013,02,28,00,49,9.70
2013,02,28,00,50,12.00
2013,02,28,00,51,11.80
2013,02,28,00,52,11.30
2013,02,28,00,53,9.20
2013,02,28,00,54,11.20
2013,02,28,00,55,13.30
2013,02,28,00,56,13.60
2013,02,28,00,57,12.90
2013,02,28,00,58,11.30
2013,02,28,00,59,9.40
2013,02,28,01,00,9.40
2013,02,28,01,01,13.60
2013,02,28,01,02,8.40
2013,02,28,01,03,11.90
2013,02,28,01,04,9.70
2013,02,28,01,05,8.30
2013,02,28,01,06,10.50
2013,02,28,01,07,9.70
2013,02,28,01,08,11.00
2013,02,28,01,09,6.40
2013,02,28,01,10,11.60
2013,02,28,01,11,8.60
2013,02,28,01,12,8.30
2013,02,28,01,13,9.40
2013,02,28,01,14,14.00
2013,02,28,01,15,12.20
2013,02,28,01,16,9.10
2013,02,28,01,17,8.60
2013,02,28,01,18,13.00
2013,02,28,01,19,9.60
2013,02,28,01,20,9.70
2013,02,28,01,21,12.20
2013,02,28,01,22,13.80
2013,02,28,01,23,13.20
2013,02,28,01,24,13.20
2013,02,28,01,25,10.30
2013,02,28,01,26,12.40
2013,02,28,01,27,9.60
2013,02,28,01,28,9.90
2013,02,28,01,29,12.50
2013,02,28,01,30,12.10
2013,02,28,01,31,11.10
2013,02,28,01,32,10.50
2013,02,28,01,33,14.80
2013,02,28,01,34,14.10
2013,02,28,01,35,14.20
2013,02,28,01,36,10.30
2013,02,28,01,37,11.90
2013,02,28,01,38,11.70
2013,02,28,01,39,14.30
2013,02,28,01,40,12.50
2013,02,28,01,41,8.40
2013,02,28,01,42,10.30
2013,02,28,01,43,9.30
2013,02,28,01,44,12.20
2013,02,28,01,45,8.90
2013,02,28,01,46,8.70
2013,02,28,01,47,9.70
2013,02,28,01,48,10.70
2013,02,28,01,49,8.10
2013,02,28,01,50,9.40
2013,02,28,01,51,9.40
2013,02,28,01,52,13.20
2013,02,28,01,53,9.70
2013,02,28,01,54,9.50
2013,02,28,01,55,9.10
2013,02,28,01,56,12.00
2013,02,28,01,57,10.80
2013,02,28,01,58,12.50
2013,02,28,01,59,14.20
2013,02,28,02,00,12.10
2013,02,28,02,01,8.50
2013,02,28,02,02,9.00
2013,02,28,02,03,10.80
2013,02,28,02,04,10.30
2013,02,28,02,05,11.80
2013,02,28,02,06,9.90
2013,02,28,02,07,12.70
2013,02,28,02,08,11.40
2013,02,28,02,09,10.00
2013,02,28,02,10,12.30
2013,02,28,02,11,10.80
2013,02,28,02,12,9.70
2013,02,28,02,13,13.50
2013,02,28,02,14,12.60
2013,02,28,02,15,9.80
2013,02,28,02,16,11.10
2013,02,28,02,17,11.90
2013,02,28,02,18,8.50
2013,02,28,02,19,12.90
2013,02,28,02,20,10.40
2013,02,28,02,21,12.00
2013,02,28,02,22,9.00
2013,02,28,02,23,10.70
2013,02,28,02,24,8.60
2013,02,28,02,25,11.80
2013,02,28,02,26,10.60
2013,02,28,02,27,9.10
2013,02,28,02,28,11.50
2013,02,28,02,29,14.50
2013,02,28,02,30,10.00
2013,02,28,02,31,10.70
2013,02,28,02,32,6.20
2013,02,28,02,33,10.70
2013,02,28,02,34,9.70
2013,02,28,02,35,8.00
2013,02,28,02,36,10.20
2013,02,28,02,37,7.60
2013,02,28,02,38,8.10
2013,02,28,02,39,9.90
2013,02,28,02,40,9.10
2013,02,28,02,41,6.80
2013,02,28,02,42,9.80
2013,02,28,02,43,6.70
2013,02,28,02,44,8.40
2013,02,28,02,45,8.00
2013,02,28,02,46,7.00
2013,02,28,02,47,9.00
2013,02,28,02,48,7.20
2013,02,28,02,49,8.50
2013,02,28,02,50,10.20
2013,02,28,02,51,7.50
2013,02,28,02,52,9.80
2013,02,28,02,53,8.40
2013,02,28,02,54,9.40
2013,02,28,02,55,9.30
2013,02,28,02,56,9.40
2013,02,28,02,57,7.80
2013,02,28,02,58,8.40
2013,02,28,02,59,8.70
2013,02,28,03,00,10.50
2013,02,28,03,01,9.80
2013,02,28,03,02,9.20
2013,02,28,03,03,10.90
2013,02,28,03,04,10.80
2013,02,28,03,05,11.40
2013,02,28,03,06,12.50
2013,02,28,03,07,10.20
2013,02,28,03,08,10.40
2013,02,28,03,09,11.30
2013,02,28,03,10,10.90
2013,02,28,03,11,14.10
2013,02,28,03,12,9.70
2013,02,28,03,13,12.40
2013,02,28,03,14,10.70
2013,02,28,03,15,8.90
2013,02,28,03,16,9.50
2013,02,28,03,17,10.70
2013,02,28,03,18,11.80
2013,02,28,03,19,10.30
2013,02,28,03,20,7.80
2013,02,28,03,21,9.00
2013,02,28,03,22,9.60
2013,02,28,03,23,13.40
2013,02,28,03,24,12.70
2013,02,28,03,25,11.30
2013,02,28,03,26,9.90
2013,02,28,03,27,10.00
2013,02,28,03,28,11.20
2013,02,28,03,29,11.00
2013,02,28,03,30,8.80
2013,02,28,03,31,10.00
2013,02,28,03,32,12.00
2013,02,28,03,33,10.30
2013,02,28,03,34,8.40
2013,02,28,03,35,12.00
2013,02,28,03,36,11.30
2013,02,28,03,37,8.20
2013,02,28,03,38,8.60
2013,02,28,03,39,9.60
2013,02,28,03,40,12.00
2013,02,28,03,41,10.30
2013,02,28,03,42,7.20
2013,02,28,03,43,9.10
2013,02,28,03,44,8.10
2013,02,28,03,45,8.60
2013,02,28,03,46,8.40
2013,02,28,03,47,7.40
2013,02,28,03,48,10.70
2013,02,28,03,49,8.40
2013,02,28,03,50,7.60
2013,02,28,03,51,7.30
2013,02,28,03,52,8.10
2013,02,28,03,53,7.00
2013,02,28,03,54,8.60
2013,02,28,03,55,10.00
2013,02,28,03,56,9.70
2013,02,28,03,57,10.30
2013,02,28,03,58,7.40
2013,02,28,03,59,7.10
2013,02,28,04,00,8.70
2013,02,28,04,01,9.10
2013,02,28,04,02,7.40
2013,02,28,04,03,6.10
2013,02,28,04,04,5.30
2013,02,28,04,05,8.10
2013,02,28,04,06,7.80
2013,02,28,04,07,9.40
2013,02,28,04,08,7.80
2013,02,28,04,09,6.40
2013,02,28,04,10,5.90
2013,02,28,04,11,7.50
2013,02,28,04,12,7.20
2013,02,28,04,13,6.60
2013,02,28,04,14,7.50
2013,02,28,04,15,8.60
2013,02,28,04,16,9.10
2013,02,28,04,17,10.10
2013,02,28,04,18,7.70
2013,02,28,04,19,10.80
2013,02,28,04,20,13.60
2013,02,28,04,21,7.90
2013,02,28,04,22,10.00
2013,02,28,04,23,9.00
2013,02,28,04,24,9.10
2013,02,28,04,25,10.30
2013,02,28,04,26,7.70
2013,02,28,04,27,7.10
2013,02,28,04,28,8.40
2013,02,28,04,29,11.70
2013,02,28,04,30,9.30
2013,02,28,04,31,7.90
2013,02,28,04,32,8.10
2013,02,28,04,33,7.40
2013,02,28,04,34,8.90
2013,02,28,04,35,13.60
2013,02,28,04,36,10.10
2013,02,28,04,37,11.60
2013,02,28,04,38,13.60
2013,02,28,04,39,12.70
2013,02,28,04,40,11.00
2013,02,28,04,41,9.70
2013,02,28,04,42,10.30
2013,02,28,04,43,8.70
2013,02,28,04,44,7.30
2013,02,28,04,45,11.90
2013,02,28,04,46,9.00
2013,02,28,04,47,9.40
2013,02,28,04,48,11.30
2013,02,28,04,49,11.80
2013,02,28,04,50,11.10
2013,02,28,04,51,10.10
2013,02,28,04,52,11.20
2013,02,28,04,53,8.70
2013,02,28,04,54,13.50
2013,02,28,04,55,11.70
2013,02,28,04,56,10.20
2013,02,28,04,57,11.30
2013,02,28,04,58,13.50
2013,02,28,04,59,11.50
2013,02,28,05,00,12.60
2013,02,28,05,01,12.10
2013,02,28,05,02,11.30
2013,02,28,05,03,15.40
2013,02,28,05,04,13.70
2013,02,28,05,05,13.30
2013,02,28,05,06,14.90
2013,02,28,05,07,12.30
2013,02,28,05,08,15.90
2013,02,28,05,09,12.70
2013,02,28,05,10,10.70
2013,02,28,05,11,10.10
2013,02,28,05,12,11.60
2013,02,28,05,13,11.70
2013,02,28,05,14,10.60
2013,02,28,05,15,12.10
2013,02,28,05,16,13.60
2013,02,28,05,17,12.70
2013,02,28,05,18,12.50
2013,02,28,05,19,14.30
2013,02,28,05,20,12.70
2013,02,28,05,21,9.40
2013,02,28,05,22,12.60
2013,02,28,05,23,10.50
2013,02,28,05,24,12.50
2013,02,28,05,25,16.30
2013,02,28,05,26,11.90
2013,02,28,05,27,9.70
2013,02,28,05,28,14.10
2013,02,28,05,29,12.70
2013,02,28,05,30,14.20
2013,02,28,05,31,7.80
2013,02,28,05,32,12.50
2013,02,28,05,33,13.00
2013,02,28,05,34,10.30
2013,02,28,05,35,14.30
2013,02,28,05,36,11.80
2013,02,28,05,37,14.30
2013,02,28,05,38,11.30
2013,02,28,05,39,15.00
2013,02,28,05,40,11.80
2013,02,28,05,41,18.70
2013,02,28,05,42,16.70
2013,02,28,05,43,14.00
2013,02,28,05,44,17.00
2013,02,28,05,45,13.20
2013,02,28,05,46,16.90
2013,02,28,05,47,15.70
2013,02,28,05,48,16.60
2013,02,28,05,49,14.70
2013,02,28,05,50,15.10
2013,02,28,05,51,11.70
2013,02,28,05,52,16.50
2013,02,28,05,53,18.20
2013,02,28,05,54,16.90
2013,02,28,05,55,13.60
2013,02,28,05,56,17.00
2013,02,28,05,57,13.20
2013,02,28,05,58,14.30
2013,02,28,05,59,15.50
2013,02,28,06,00,14.60
2013,02,28,06,01,15.60
2013,02,28,06,02,15.70
2013,02,28,06,03,13.90
2013,02,28,06,04,11.50
2013,02,28,06,05,15.00
2013,02,28,06,06,11.30
2013,02,28,06,07,9.90
2013,02,28,06,08,10.10
2013,02,28,06,09,12.00
2013,02,28,06,10,11.60
2013,02,28,06,11,11.00
2013,02,28,06,12,16.10
2013,02,28,06,13,10.40
2013,02,28,06,14,14.60
2013,02,28,06,15,15.10
2013,02,28,06,16,16.20
2013,02,28,06,17,21.20
2013,02,28,06,18,14.40
2013,02,28,06,19,14.00
2013,02,28,06,20,13.50
2013,02,28,06,21,12.70
2013,02,28,06,22,10.00
2013,02,28,06,23,14.40
2013,02,28,06,24,15.00
2013,02,28,06,25,15.60
2013,02,28,06,26,16.30
2013,02,28,06,27,14.30
2013,02,28,06,28,13.90
2013,02,28,06,29,14.90
2013,02,28,06,30,14.90
2013,02,28,06,31,17.50
2013,02,28,06,32,18.60
2013,02,28,06,33,9.00
2013,02,28,06,34,11.80
2013,02,28,06,35,12.80
2013,02,28,06,36,13.90
2013,02,28,06,37,11.30
2013,02,28,06,38,8.90
2013,02,28,06,39,11.40
2013,02,28,06,40,16.80
2013,02,28,06,41,9.90
2013,02,28,06,42,12.60
2013,02,28,06,43,11.00
2013,02,28,06,44,10.90
2013,02,28,06,45,8.40
2013,02,28,06,46,15.40
2013,02,28,06,47,10.10
2013,02,28,06,48,11.70
2013,02,28,06,49,8.80
2013,02,28,06,50,10.20
2013,02,28,06,51,12.30
2013,02,28,06,52,14.30
2013,02,28,06,53,13.20
2013,02,28,06,54,11.10
2013,02,28,06,55,8.70
2013,02,28,06,56,11.40
2013,02,28,06,57,17.00
2013,02,28,06,58,13.10
2013,02,28,06,59,13.00
2013,02,28,07,00,14.40
2013,02,28,07,01,16.90
2013,02,28,07,02,10.20
2013,02,28,07,03,9.30
2013,02,28,07,04,11.30
2013,02,28,07,05,10.20
2013,02,28,07,06,10.50
2013,02,28,07,07,12.30
2013,02,28,07,08,20.00
2013,02,28,07,09,12.90
2013,02,28,07,10,11.00
2013,02,28,07,11,15.60
2013,02,28,07,12,11.90
2013,02,28,07,13,13.50
2013,02,28,07,14,12.60
2013,02,28,07,15,12.60
2013,02,28,07,16,14.40
2013,02,28,07,17,12.10
2013,02,28,07,18,12.50
2013,02,28,07,19,14.90
2013,02,28,07,20,11.50
2013,02,28,07,21,12.20
2013,02,28,07,22,14.60
2013,02,28,07,23,13.00
2013,02,28,07,24,13.00
2013,02,28,07,25,16.00
2013,02,28,07,26,12.30
2013,02,28,07,27,8.40
2013,02,28,07,28,9.50
2013,02,28,07,29,10.20
2013,02,28,07,30,13.30
2013,02,28,07,31,13.10
2013,02,28,07,32,11.30
2013,02,28,07,33,14.90
2013,02,28,07,34,14.50
2013,02,28,07,35,14.00
2013,02,28,07,36,12.60
2013,02,28,07,37,10.00
2013,02,28,07,38,18.40
2013,02,28,07,39,10.30
2013,02,28,07,40,11.10
2013,02,28,07,41,13.50
2013,02,28,07,42,13.00
2013,02,28,07,43,16.30
2013,02,28,07,44,10.90
2013,02,28,07,45,10.80
2013,02,28,07,46,14.30
2013,02,28,07,47,14.40
2013,02,28,07,48,11.60
2013,02,28,07,49,13.40
2013,02,28,07,50,13.70
2013,02,28,07,51,13.30
2013,02,28,07,52,15.40
2013,02,28,07,53,11.30
2013,02,28,07,54,14.30
2013,02,28,07,55,13.00
2013,02,28,07,56,13.40
2013,02,28,07,57,17.60
2013,02,28,07,58,14.50
2013,02,28,07,59,15.40
2013,02,28,08,00,16.80
2013,02,28,08,01,18.80
2013,02,28,08,02,16.10
2013,02,28,08,03,15.40
2013,02,28,08,04,14.90
2013,02,28,08,05,15.10
2013,02,28,08,06,13.60
2013,02,28,08,07,15.60
2013,02,28,08,08,17.90
2013,02,28,08,09,16.60
2013,02,28,08,10,13.80
2013,02,28,08,11,14.80
2013,02,28,08,12,14.50
2013,02,28,08,13,18.50
2013,02,28,08,14,15.70
2013,02,28,08,15,13.60
2013,02,28,08,16,12.50
2013,02,28,08,17,12.10
2013,02,28,08,18,10.60
2013,02,28,08,19,13.90
2013,02,28,08,20,12.90
2013,02,28,08,21,13.60
2013,02,28,08,22,13.20
2013,02,28,08,23,16.70
2013,02,28,08,24,11.90
2013,02,28,08,25,20.60
2013,02,28,08,26,14.00
2013,02,28,08,27,12.60
2013,02,28,08,28,24.10
2013,02,28,08,29,19.20
2013,02,28,08,30,20.60
2013,02,28,08,31,18.20
2013,02,28,08,32,14.30
2013,02,28,08,33,15.40
2013,02,28,08,34,20.60
2013,02,28,08,35,19.80
2013,02,28,08,36,17.80
2013,02,28,08,37,15.60
2013,02,28,08,38,15.40
2013,02,28,08,39,17.30
2013,02,28,08,40,19.20
2013,02,28,08,41,14.80
2013,02,28,08,42,22.90
2013,02,28,08,43,26.90
2013,02,28,08,44,14.50
2013,02,28,08,45,23.10
2013,02,28,08,46,19.90
2013,02,28,08,47,19.00
2013,02,28,08,48,18.50
2013,02,28,08,49,19.60
2013,02,28,08,50,16.10
2013,02,28,08,51,15.90
2013,02,28,08,52,16.80
2013,02,28,08,53,20.90
2013,02,28,08,54,15.20
2013,02,28,08,55,21.70
2013,02,28,08,56,17.60
2013,02,28,08,57,18.70
2013,02,28,08,58,18.90
2013,02,28,08,59,17.70
2013,02,28,09,00,13.00
2013,02,28,09,01,15.50
2013,02,28,09,02,18.70
2013,02,28,09,03,16.40
2013,02,28,09,04,19.10
2013,02,28,09,05,19.20
2013,02,28,09,06,22.10
2013,02,28,09,07,18.10
2013,02,28,09,08,19.60
2013,02,28,09,09,16.30
2013,02,28,09,10,22.50
2013,02,28,09,11,18.80
2013,02,28,09,12,18.20
2013,02,28,09,13,15.00
2013,02,28,09,14,20.40
2013,02,28,09,15,15.70
2013,02,28,09,16,12.60
2013,02,28,09,17,15.60
2013,02,28,09,18,15.30
2013,02,28,09,19,15.00
2013,02,28,09,20,15.50
2013,02,28,09,21,15.10
2013,02,28,09,22,13.20
2013,02,28,09,23,14.20
2013,02,28,09,24,19.40
2013,02,28,09,25,20.70
2013,02,28,09,26,16.50
2013,02,28,09,27,14.20
2013,02,28,09,28,16.60
2013,02,28,09,29,17.20
2013,02,28,09,30,16.50
2013,02,28,09,31,14.60
2013,02,28,09,32,14.90
2013,02,28,09,33,18.70
2013,02,28,09,34,16.60
2013,02,28,09,35,23.90
2013,02,28,09,36,18.20
2013,02,28,09,37,14.60
2013,02,28,09,38,18.90
2013,02,28,09,39,13.30
2013,02,28,09,40,15.90
2013,02,28,09,41,17.50
2013,02,28,09,42,14.70
2013,02,28,09,43,19.10
2013,02,28,09,44,14.10
2013,02,28,09,45,19.20
2013,02,28,09,46,18.00
2013,02,28,09,47,15.30
2013,02,28,09,48,17.30
2013,02,28,09,49,18.80
2013,02,28,09,50,16.80
2013,02,28,09,51,14.50
2013,02,28,09,52,14.70
2013,02,28,09,53,15.10
2013,02,28,09,54,22.10
2013,02,28,09,55,17.90
2013,02,28,09,56,24.30
2013,02,28,09,57,19.30
2013,02,28,09,58,23.80
2013,02,28,09,59,21.80
2013,02,28,10,00,23.30
2013,02,28,10,01,18.80
2013,02,28,10,02,17.00
2013,02,28,10,03,17.50
2013,02,28,10,04,20.90
2013,02,28,10,05,16.20
2013,02,28,10,06,19.70
2013,02,28,10,07,20.50
2013,02,28,10,08,15.10
2013,02,28,10,09,21.40
2013,02,28,10,10,16.40
2013,02,28,10,11,19.20
2013,02,28,10,12,17.30
2013,02,28,10,13,18.60
2013,02,28,10,14,18.90
2013,02,28,10,15,20.40
2013,02,28,10,16,19.10
2013,02,28,10,17,18.50
2013,02,28,10,18,17.20
2013,02,28,10,19,21.70
2013,02,28,10,20,19.20
2013,02,28,10,21,21.50
2013,02,28,10,22,19.40
2013,02,28,10,23,16.60
2013,02,28,10,24,14.70
2013,02,28,10,25,21.60
2013,02,28,10,26,18.30
2013,02,28,10,27,19.60
2013,02,28,10,28,17.70
2013,02,28,10,29,24.00
2013,02,28,10,30,21.20
2013,02,28,10,31,22.10
2013,02,28,10,32,23.80
2013,02,28,10,33,18.80
2013,02,28,10,34,19.50
2013,02,28,10,35,21.00
2013,02,28,10,36,16.30
2013,02,28,10,37,19.00
2013,02,28,10,38,15.90
2013,02,28,10,39,13.00
2013,02,28,10,40,17.60
2013,02,28,10,41,19.50
2013,02,28,10,42,14.80
2013,02,28,10,43,18.50
2013,02,28,10,44,16.60
2013,02,28,10,45,13.10
2013,02,28,10,46,20.80
2013,02,28,10,47,19.70
2013,02,28,10,48,15.30
2013,02,28,10,49,13.80
2013,02,28,10,50,11.70
2013,02,28,10,51,12.90
2013,02,28,10,52,16.40
2013,02,28,10,53,20.50
2013,02,28,10,54,16.50
2013,02,28,10,55,15.70
2013,02,28,10,56,15.60
2013,02,28,10,57,14.40
2013,02,28,10,58,15.30
2013,02,28,10,59,16.60
2013,02,28,11,00,15.30
2013,02,28,11,01,17.60
2013,02,28,11,02,17.40
2013,02,28,11,03,16.60
2013,02,28,11,04,14.90
2013,02,28,11,05,15.60
2013,02,28,11,06,13.60
2013,02,28,11,07,17.80
2013,02,28,11,08,18.50
2013,02,28,11,09,15.50
2013,02,28,11,10,13.00
2013,02,28,11,11,13.80
2013,02,28,11,12,19.90
2013,02,28,11,13,15.00
2013,02,28,11,14,19.20
2013,02,28,11,15,14.80
2013,02,28,11,16,18.90
2013,02,28,11,17,19.20
2013,02,28,11,18,15.90
2013,02,28,11,19,17.90
2013,02,28,11,20,20.50
2013,02,28,11,21,18.20
2013,02,28,11,22,16.40
2013,02,28,11,23,19.20
2013,02,28,11,24,17.70
2013,02,28,11,25,16.50
2013,02,28,11,26,22.40
2013,02,28,11,27,17.50
2013,02,28,11,28,19.60
2013,02,28,11,29,19.50
2013,02,28,11,30,19.90
2013,02,28,11,31,15.30
2013,02,28,11,32,21.30
2013,02,28,11,33,14.50
2013,02,28,11,34,12.30
2013,02,28,11,35,14.60
2013,02,28,11,36,18.20
2013,02,28,11,37,16.00
2013,02,28,11,38,14.90
2013,02,28,11,39,13.80
2013,02,28,11,40,14.00
2013,02,28,11,41,17.80
2013,02,28,11,42,16.80
2013,02,28,11,43,14.20
2013,02,28,11,44,11.70
2013,02,28,11,45,16.00
2013,02,28,11,46,14.60
2013,02,28,11,47,16.30
2013,02,28,11,48,16.80
2013,02,28,11,49,19.70
2013,02,28,11,50,16.00
2013,02,28,11,51,18.80
2013,02,28,11,52,13.20
2013,02,28,11,53,10.40
2013,02,28,11,54,16.00
2013,02,28,11,55,16.90
2013,02,28,11,56,15.10
2013,02,28,11,57,17.90
2013,02,28,11,58,16.20
2013,02,28,11,59,15.20
2013,02,28,12,00,14.00
2013,02,28,12,01,17.00
2013,02,28,12,02,15.60
2013,02,28,12,03,13.50
2013,02,28,12,04,15.20
2013,02,28,12,05,14.80
2013,02,28,12,06,16.70
2013,02,28,12,07,17.30
2013,02,28,12,08,13.40
2013,02,28,12,09,14.20
2013,02,28,12,10,13.20
2013,02,28,12,11,17.60
2013,02,28,12,12,14.90
2013,02,28,12,13,16.50
2013,02,28,12,14,14.30
2013,02,28,12,15,17.40
2013,02,28,12,16,12.80
2013,02,28,12,17,20.70
2013,02,28,12,18,19.10
2013,02,28,12,19,17.40
2013,02,28,12,20,15.20
2013,02,28,12,21,12.60
2013,02,28,12,22,19.20
2013,02,28,12,23,16.90
2013,02,28,12,24,16.20
2013,02,28,12,25,15.30
2013,02,28,12,26,17.70
2013,02,28,12,27,18.50
2013,02,28,12,28,13.30
2013,02,28,12,29,19.30
2013,02,28,12,30,18.90
2013,02,28,12,31,19.80
2013,02,28,12,32,19.50
2013,02,28,12,33,18.40
2013,02,28,12,34,16.60
2013,02,28,12,35,21.70
2013,02,28,12,36,21.10
2013,02,28,12,37,18.10
2013,02,28,12,38,21.40
2013,02,28,12,39,16.60
2013,02,28,12,40,15.50
2013,02,28,12,41,20.00
2013,02,28,12,42,16.50
2013,02,28,12,43,22.60
2013,02,28,12,44,19.70
2013,02,28,12,45,20.90
2013,02,28,12,46,26.30
2013,02,28,12,47,20.50
2013,02,28,12,48,17.50
2013,02,28,12,49,13.00
2013,02,28,12,50,12.20
2013,02,28,12,51,15.70
2013,02,28,12,52,19.70
2013,02,28,12,53,17.60
2013,02,28,12,54,18.80
2013,02,28,12,55,18.00
2013,02,28,12,56,17.30
2013,02,28,12,57,19.10
2013,02,28,12,58,18.40
2013,02,28,12,59,18.20
2013,02,28,13,00,18.30
2013,02,28,13,01,17.40
2013,02,28,13,02,20.30
2013,02,28,13,03,15.30
2013,02,28,13,04,15.10
2013,02,28,13,05,14.90
2013,02,28,13,06,11.70
2013,02,28,13,07,11.70
2013,02,28,13,08,16.20
2013,02,28,13,09,15.10
2013,02,28,13,10,16.70
2013,02,28,13,11,15.90
2013,02,28,13,12,16.80
2013,02,28,13,13,12.70
2013,02,28,13,14,12.00
2013,02,28,13,15,16.50
2013,02,28,13,16,15.30
2013,02,28,13,17,15.70
2013,02,28,13,18,14.90
2013,02,28,13,19,14.30
2013,02,28,13,20,17.40
2013,02,28,13,21,16.50
2013,02,28,13,22,11.50
2013,02,28,13,23,13.10
2013,02,28,13,24,15.60
2013,02,28,13,25,17.00
2013,02,28,13,26,18.30
2013,02,28,13,27,12.30
2013,02,28,13,28,13.10
2013,02,28,13,29,13.40
2013,02,28,13,30,14.70
2013,02,28,13,31,12.50
2013,02,28,13,32,11.70
2013,02,28,13,33,11.30
2013,02,28,13,34,12.20
2013,02,28,13,35,11.40
2013,02,28,13,36,16.30
2013,02,28,13,37,16.10
2013,02,28,13,38,13.30
2013,02,28,13,39,12.60
2013,02,28,13,40,15.30
2013,02,28,13,41,13.30
2013,02,28,13,42,14.50
2013,02,28,13,43,14.30
2013,02,28,13,44,13.10
2013,02,28,13,45,13.20
2013,02,28,13,46,12.20
2013,02,28,13,47,14.60
2013,02,28,13,48,6.20
2013,02,28,13,49,8.40
2013,02,28,13,50,12.00
2013,02,28,13,51,15.70
2013,02,28,13,52,11.20
2013,02,28,13,53,7.10
2013,02,28,13,54,10.40
2013,02,28,13,55,12.80
2013,02,28,13,56,10.00
2013,02,28,13,57,7.20
2013,02,28,13,58,7.70
2013,02,28,13,59,7.30
2013,02,28,14,00,8.90
2013,02,28,14,01,6.00
2013,02,28,14,02,9.40
2013,02,28,14,03,13.00
2013,02,28,14,04,8.30
2013,02,28,14,05,11.50
2013,02,28,14,06,12.70
2013,02,28,14,07,14.70
2013,02,28,14,08,15.70
2013,02,28,14,09,14.00
2013,02,28,14,10,15.70
2013,02,28,14,11,14.10
2013,02,28,14,12,16.20
2013,02,28,14,13,14.90
2013,02,28,14,14,12.60
2013,02,28,14,15,11.30
2013,02,28,14,16,10.80
2013,02,28,14,17,14.60
2013,02,28,14,18,13.00
2013,02,28,14,19,14.60
2013,02,28,14,20,8.80
2013,02,28,14,21,10.30
2013,02,28,14,22,12.50
2013,02,28,14,23,13.50
2013,02,28,14,24,11.60
2013,02,28,14,25,9.30
2013,02,28,14,26,9.50
2013,02,28,14,27,10.20
2013,02,28,14,28,10.40
2013,02,28,14,29,10.30
2013,02,28,14,30,8.70
2013,02,28,14,31,10.50
2013,02,28,14,32,10.70
2013,02,28,14,33,7.70
2013,02,28,14,34,6.00
2013,02,28,14,35,10.50
2013,02,28,14,36,8.10
2013,02,28,14,37,6.10
2013,02,28,14,38,7.40
2013,02,28,14,39,9.00
2013,02,28,14,40,10.50
2013,02,28,14,41,12.00
2013,02,28,14,42,12.40
2013,02,28,14,43,13.30
2013,02,28,14,44,10.70
2013,02,28,14,45,11.50
2013,02,28,14,46,12.70
2013,02,28,14,47,8.70
2013,02,28,14,48,11.30
2013,02,28,14,49,10.90
2013,02,28,14,50,8.10
2013,02,28,14,51,10.00
2013,02,28,14,52,12.70
2013,02,28,14,53,11.00
2013,02,28,14,54,11.60
2013,02,28,14,55,14.20
2013,02,28,14,56,13.60
2013,02,28,14,57,11.50
2013,02,28,14,58,12.50
2013,02,28,14,59,13.10
2013,02,28,15,00,14.60
2013,02,28,15,01,14.80
2013,02,28,15,02,11.30
2013,02,28,15,03,10.10
2013,02,28,15,04,12.00
2013,02,28,15,05,13.70
2013,02,28,15,06,12.30
2013,02,28,15,07,12.70
2013,02,28,15,08,13.90
2013,02,28,15,09,10.90
2013,02,28,15,10,9.60
2013,02,28,15,11,7.30
2013,02,28,15,12,10.00
2013,02,28,15,13,11.40
2013,02,28,15,14,8.00
2013,02,28,15,15,10.70
2013,02,28,15,16,10.70
2013,02,28,15,17,13.60
2013,02,28,15,18,12.40
2013,02,28,15,19,9.20
2013,02,28,15,20,10.20
2013,02,28,15,21,11.70
2013,02,28,15,22,9.90
2013,02,28,15,23,16.00
2013,02,28,15,24,20.60
2013,02,28,15,25,14.00
2013,02,28,15,26,12.30
2013,02,28,15,27,13.20
2013,02,28,15,28,10.50
2013,02,28,15,29,14.30
2013,02,28,15,30,10.20
2013,02,28,15,31,11.90
2013,02,28,15,32,12.40
2013,02,28,15,33,11.10
2013,02,28,15,34,14.30
2013,02,28,15,35,12.90
2013,02,28,15,36,9.40
2013,02,28,15,37,9.10
2013,02,28,15,38,9.40
2013,02,28,15,39,7.20
2013,02,28,15,40,12.00
2013,02,28,15,41,7.20
2013,02,28,15,42,6.10
2013,02,28,15,43,6.40
2013,02,28,15,44,4.60
2013,02,28,15,45,8.50
2013,02,28,15,46,11.20
2013,02,28,15,47,10.00
2013,02,28,15,48,8.70
2013,02,28,15,49,7.90
2013,02,28,15,50,11.00
2013,02,28,15,51,8.90
2013,02,28,15,52,9.00
2013,02,28,15,53,9.40
2013,02,28,15,54,7.50
2013,02,28,15,55,8.40
2013,02,28,15,56,9.40
2013,02,28,15,57,11.20
2013,02,28,15,58,10.90
2013,02,28,15,59,8.10
2013,02,28,16,00,11.50
2013,02,28,16,01,10.70
2013,02,28,16,02,8.70
2013,02,28,16,03,8.40
2013,02,28,16,04,6.70
2013,02,28,16,05,8.40
2013,02,28,16,06,9.00
2013,02,28,16,07,8.70
2013,02,28,16,08,9.40
2013,02,28,16,09,11.00
2013,02,28,16,10,8.30
2013,02,28,16,11,8.90
2013,02,28,16,12,9.40
2013,02,28,16,13,6.60
2013,02,28,16,14,7.60
2013,02,28,16,15,6.50
2013,02,28,16,16,7.40
2013,02,28,16,17,8.30
2013,02,28,16,18,14.30
2013,02,28,16,19,9.00
2013,02,28,16,20,9.50
2013,02,28,16,21,10.20
2013,02,28,16,22,8.20
2013,02,28,16,23,7.60
2013,02,28,16,24,5.40
2013,02,28,16,25,9.70
2013,02,28,16,26,10.80
2013,02,28,16,27,8.20
2013,02,28,16,28,6.30
2013,02,28,16,29,8.40
2013,02,28,16,30,10.00
2013,02,28,16,31,9.30
2013,02,28,16,32,10.40
2013,02,28,16,33,10.70
2013,02,28,16,34,10.30
2013,02,28,16,35,10.50
2013,02,28,16,36,10.70
2013,02,28,16,37,9.90
2013,02,28,16,38,9.20
2013,02,28,16,39,8.30
2013,02,28,16,40,8.20
2013,02,28,16,41,9.60
2013,02,28,16,42,10.20
2013,02,28,16,43,9.60
2013,02,28,16,44,8.70
2013,02,28,16,45,6.70
2013,02,28,16,46,11.90
2013,02,28,16,47,6.50
2013,02,28,16,48,10.10
2013,02,28,16,49,12.90
2013,02,28,16,50,11.30
2013,02,28,16,51,10.80
2013,02,28,16,52,9.40
2013,02,28,16,53,7.70
2013,02,28,16,54,9.00
2013,02,28,16,55,9.40
2013,02,28,16,56,5.80
2013,02,28,16,57,7.20
2013,02,28,16,58,11.10
2013,02,28,16,59,9.50
2013,02,28,17,00,10.70
2013,02,28,17,01,6.10
2013,02,28,17,02,7.40
2013,02,28,17,03,9.70
2013,02,28,17,04,7.40
2013,02,28,17,05,5.70
2013,02,28,17,06,7.80
2013,02,28,17,07,6.80
2013,02,28,17,08,7.10
2013,02,28,17,09,11.10
2013,02,28,17,10,8.40
2013,02,28,17,11,5.70
2013,02,28,17,12,7.80
2013,02,28,17,13,7.40
2013,02,28,17,14,6.80
2013,02,28,17,15,8.30
2013,02,28,17,16,9.90
2013,02,28,17,17,8.90
2013,02,28,17,18,12.00
2013,02,28,17,19,9.70
2013,02,28,17,20,7.80
2013,02,28,17,21,7.10
2013,02,28,17,22,9.70
2013,02,28,17,23,6.00
2013,02,28,17,24,6.90
2013,02,28,17,25,7.20
2013,02,28,17,26,7.40
2013,02,28,17,27,7.90
2013,02,28,17,28,4.70
2013,02,28,17,29,7.40
2013,02,28,17,30,7.10